STARLINK-1166, 45060

Orbit data source: Space-Track

STARLINK-1166, 45060 is a payload satellite owned by SpaceX/Seattle (US) in LEO that was launched on Wed, 29 Jan 2020 UTC via an FALCON 9 launch vehicle from the Air Force Eastern Test Range (AFETR). Payload-class satellites include a variety of spacecraft equipped with specific instruments for various scientific and technological missions. These include communications satellites like Starlink; space stations such as the ISS; scientific satellites like the Hubble; Earth observation satellites from companies like Planet Labs, Umbra, and HawkEye 360; GPS; miniature CubeSats for education and research; and military/defense satellites.

Loading next visibility...
Identifier
45060, 2020-006S
Orbit
LEO
Country
Flag of USUS
Related business
Manufacturer
SpaceX/Seattle
Mission
Partially operational Commercial Communications
Bus & Motor
STARLINK, Unknown motor
Mass
260 kg wet, ~248 kg dry
Launch date (UTC)
2020-01-29 (6 years ago)
Launch vehicle
FALCON 9
Launch site
Air Force Eastern Test Range (AFETR)
Object type
Payload
Rocket body
Debris
Shape & HBR
Box + 1 Pan, 10.1 m
Radar Cross Section
13.562 m², Large (>1 m²)

Expand to show TLE details & history
Last TLE update: 1 day ago

TLE from 1 day ago
0 STARLINK-1166
1 45060U 20006S   26135.28543807  .00053098  00000-0  76152-3 0  9996
2 45060  53.0474 312.8175 0001161 252.5629 107.5255 15.55645996346998
Epoch: 2026-05-15T06:51Z
TLE epoch observation values (Epoch: 2026-05-15T06:51:01.849Z)
Latitude
0.00003°
Longitude
-22.95913°
Altitude
401.41 km
Speed
7.671 km/s
True Right ascension
20h 51m 16s
True Declination
0° 00' 00"
Sunlit
Object was in daylight at epoch
Visualization orbit readout
Latitude
Unknown
Longitude
Unknown
Altitude
Unknown
Speed
Unknown
Apparent Right ascension
Unknown
Apparent Declination
Unknown
Sunlit
N/A
Visualization observer readout
Local Sidereal Time
19:21:04
Azimuth
Unknown
Elevation
Unknown
Doppler factor
Unknown
Orbital elements
Apogee altitude
401.34 km
Perigee altitude
399.766 km
Semi-major axis
6,778.69 km
Eccentricity
0.00012
Inclination
53.0474°
RAAN
312.8175°
Arg. of periapsis
252.5629°
True anomaly
107.53819°
Mean anomaly
107.5255°
Eccentric anomaly
107.53184°
Mean motion
3.88888 °/min
Orbital period
92.57 mins
BSTAR
0.00076152
Loading maneuver chart data...
Computing Atmospheric mass density...
Loading historical data...
Loading historical data...
Loading historical data...
Loading historical data...
Loading historical data...
Loading historical data...
Loading historical data...

Documentation

Showing up to 5 results
|